Volver al catálogo

CZ-6A DEB

ActivoSSO
NORAD 55512·DEBRIS·🇨🇳 China

Lanzado Nov 11, 2022 desde Taiyuan Satellite Launch Center

Loading…

Próximos Pases (próximas 24 horas)

TLE

ActualizadoSource: Space-Track

Época: Sep 14, 2026, 00:18 UTC

1 55512U 22151XJ  26257.01284397  .00004394  00000-0  13414-2 0  9990
2 55512  98.6833 273.7815 0048411 225.3444 134.3794 14.41733623180747

Sigue CZ-6A DEB en tiempo real con AllMySat

Download on the App Store